User: anonymous   Login
Location: Dammartin
(48.9032°N, 1.6195°E)
Time: 22:16:09
(UTC+00:00)
Language:

CUBEBUG 2 - Orbit

View from above orbital plane
View from above orbital plane
View from above satellite
View from above satellite

Ground track
Ground track

The orbit data is extracted from the following two-line orbital elements,

1 39440U 13066AA  23332.85281479  .00005746  00000-0  71587-3 0  9996
2 39440  97.7923 276.5278 0072023 210.0805 149.6263 14.81004507538519
Epoch (UTC): 28 November 2023 20:28:03
Eccentricity: 0.0072023
inclination: 97.7923°
perigee height: 576 km
apogee height: 676 km
right ascension of ascending node: 276.5278°
argument of perigee: 210.0805°
revolutions per day: 14.81004507
mean anomaly at epoch: 149.6263°
orbit number at epoch: 53851

The dashed part of the orbit path shows where the satellite is in the earth's shadow,  

DLR